SAS430 EKCH-ESGG

Flight info

Callsign SAS430
Flight time 0h 31m
Altitude 22000
Route VEDAR L997 LASLI N15 RISMA
Aircraft A320/M-SDE1FGHIJ1RWXYZ/LB1

Departure

Time 2026-04-30 12:15
Airport Copenhagen Kastrup Airport (EKCH)

Arrival

Time 2026-04-30 12:46
Airport Göteborg Landvetter Airport (ESGG)
Time Latitude Longitude Altitude Speed Heading
2026-04-30 11:36 55.62729 12.65254 17 ft 0 kts
2026-04-30 12:04 55.62708 12.65249 17 ft 4 kts
2026-04-30 12:04 55.62687 12.65245 17 ft 4 kts 357°
2026-04-30 12:04 55.62663 12.65256 17 ft 4 kts 321°
2026-04-30 12:04 55.62650 12.65284 17 ft 3 kts 292°
2026-04-30 12:05 55.62637 12.65316 17 ft 4 kts 343°
2026-04-30 12:05 55.62613 12.65321 17 ft 4 kts 359°
2026-04-30 12:05 55.62596 12.65322 17 ft 1 kts 359°
2026-04-30 12:08 55.62598 12.65322 17 ft 2 kts 358°
2026-04-30 12:08 55.62619 12.65319 19 ft 4 kts 352°
2026-04-30 12:08 55.62649 12.65279 19 ft 7 kts 299°
2026-04-30 12:08 55.62630 12.65201 19 ft 9 kts 208°
2026-04-30 12:09 55.62562 12.65196 17 ft 11 kts 178°
2026-04-30 12:09 55.62478 12.65200 17 ft 13 kts 179°
2026-04-30 12:09 55.62385 12.65204 17 ft 13 kts 178°
2026-04-30 12:09 55.62291 12.65203 17 ft 15 kts 183°
2026-04-30 12:10 55.62196 12.65168 17 ft 13 kts 211°
2026-04-30 12:10 55.62115 12.65073 17 ft 15 kts 213°
2026-04-30 12:10 55.62022 12.64966 19 ft 17 kts 212°
2026-04-30 12:10 55.61913 12.64842 18 ft 20 kts 212°
2026-04-30 12:11 55.61791 12.64702 19 ft 22 kts 214°
2026-04-30 12:11 55.61672 12.64564 18 ft 20 kts 213°
2026-04-30 12:11 55.61548 12.64422 19 ft 23 kts 213°
2026-04-30 12:11 55.61420 12.64274 19 ft 21 kts 212°
2026-04-30 12:12 55.61296 12.64133 17 ft 21 kts 212°
2026-04-30 12:12 55.61166 12.63985 18 ft 24 kts 213°
2026-04-30 12:12 55.61037 12.63835 17 ft 21 kts 213°
2026-04-30 12:12 55.60914 12.63693 17 ft 20 kts 213°
2026-04-30 12:13 55.60816 12.63596 17 ft 13 kts 190°
2026-04-30 12:13 55.60744 12.63673 18 ft 14 kts 129°
2026-04-30 12:13 55.60683 12.63809 18 ft 11 kts 126°
2026-04-30 12:13 55.60701 12.63909 19 ft 7 kts 40°
2026-04-30 12:14 55.60734 12.63959 21 ft 19 kts 40°
2026-04-30 12:14 55.61041 12.64438 18 ft 96 kts 41°
2026-04-30 12:14 55.61699 12.65451 21 ft 151 kts 41°
2026-04-30 12:14 55.62503 12.66680 584 ft 151 kts 40°
2026-04-30 12:15 55.63300 12.67899 1284 ft 152 kts 41°
2026-04-30 12:15 55.64111 12.69164 1774 ft 163 kts 40°
2026-04-30 12:15 55.65009 12.70545 2194 ft 177 kts 36°
2026-04-30 12:15 55.66154 12.71446 2519 ft 193 kts
2026-04-30 12:16 55.67565 12.71392 2901 ft 213 kts 350°
2026-04-30 12:16 55.69090 12.71057 3514 ft 228 kts 351°
2026-04-30 12:16 55.70695 12.70695 4315 ft 235 kts 351°
2026-04-30 12:16 55.72351 12.70307 5078 ft 248 kts 351°
2026-04-30 12:17 55.75778 12.68632 6718 ft 263 kts 334°
2026-04-30 12:17 55.77352 12.66915 7614 ft 268 kts 328°
2026-04-30 12:17 55.78906 12.65083 8566 ft 268 kts 328°
2026-04-30 12:18 55.80451 12.63196 9443 ft 272 kts 327°
2026-04-30 12:18 55.81997 12.61220 10260 ft 276 kts 327°
2026-04-30 12:18 55.83570 12.59176 10865 ft 289 kts 327°
2026-04-30 12:18 55.85263 12.56983 11158 ft 311 kts 328°
2026-04-30 12:19 55.87040 12.54681 11768 ft 320 kts 328°
2026-04-30 12:19 55.88849 12.52340 12493 ft 323 kts 328°
2026-04-30 12:19 55.90683 12.49974 13224 ft 327 kts 329°
2026-04-30 12:19 55.92535 12.47588 13954 ft 330 kts 329°
2026-04-30 12:20 55.94403 12.45180 14665 ft 333 kts 329°
2026-04-30 12:20 55.96296 12.42739 15354 ft 337 kts 329°
2026-04-30 12:20 55.98207 12.40271 15870 ft 345 kts 329°
2026-04-30 12:20 56.00201 12.37704 16173 ft 359 kts 329°
2026-04-30 12:21 56.02238 12.35077 16731 ft 364 kts 329°
2026-04-30 12:21 56.04295 12.32410 17339 ft 367 kts 329°
2026-04-30 12:21 56.06374 12.29712 17969 ft 370 kts 329°
2026-04-30 12:21 56.08467 12.27006 18596 ft 372 kts 330°
2026-04-30 12:22 56.10717 12.24765 19201 ft 369 kts 341°
2026-04-30 12:22 56.13162 12.23433 19823 ft 368 kts 353°
2026-04-30 12:22 56.15695 12.22727 20421 ft 370 kts 354°
2026-04-30 12:22 56.18255 12.22036 21011 ft 374 kts 354°
2026-04-30 12:23 56.20841 12.21331 21549 ft 377 kts 354°
2026-04-30 12:23 56.23442 12.20616 22067 ft 380 kts 354°
2026-04-30 12:23 56.26061 12.19895 22388 ft 382 kts 354°
2026-04-30 12:23 56.28691 12.19170 22459 ft 382 kts 354°
2026-04-30 12:24 56.31321 12.18441 22467 ft 383 kts 354°
2026-04-30 12:24 56.33956 12.17709 22471 ft 383 kts 354°
2026-04-30 12:24 56.35697 12.17227 22471 ft 383 kts 354°
2026-04-30 12:24 56.38331 12.16498 22463 ft 383 kts 354°
2026-04-30 12:25 56.41826 12.15527 22468 ft 382 kts 354°
2026-04-30 12:25 56.44457 12.14793 22465 ft 382 kts 354°
2026-04-30 12:25 56.46236 12.14298 22463 ft 382 kts 354°
2026-04-30 12:25 56.48865 12.13566 22471 ft 382 kts 354°
2026-04-30 12:26 56.51498 12.12834 22467 ft 382 kts 354°
2026-04-30 12:26 56.54126 12.12099 22472 ft 382 kts 354°
2026-04-30 12:26 56.56761 12.11357 22470 ft 383 kts 353°
2026-04-30 12:26 56.59392 12.10617 22465 ft 383 kts 353°
2026-04-30 12:27 56.62026 12.09880 22472 ft 383 kts 354°
2026-04-30 12:27 56.64625 12.09159 22473 ft 383 kts 354°
2026-04-30 12:27 56.67255 12.08428 22469 ft 383 kts 353°
2026-04-30 12:27 56.69887 12.07690 22475 ft 383 kts 353°
2026-04-30 12:28 56.72520 12.06944 22472 ft 383 kts 353°
2026-04-30 12:28 56.75152 12.06197 22472 ft 382 kts 353°
2026-04-30 12:28 56.77781 12.05448 22479 ft 383 kts 353°
2026-04-30 12:28 56.80413 12.04700 22479 ft 383 kts 353°
2026-04-30 12:29 56.83046 12.03955 22175 ft 381 kts 353°
2026-04-30 12:29 56.85665 12.03209 21927 ft 379 kts 353°
2026-04-30 12:29 56.88270 12.02467 21677 ft 378 kts 353°
2026-04-30 12:29 56.90865 12.01731 21420 ft 376 kts 353°
2026-04-30 12:30 56.93449 12.00999 21171 ft 376 kts 353°
2026-04-30 12:30 56.96028 12.00267 20930 ft 374 kts 353°
2026-04-30 12:30 56.98600 11.99531 20675 ft 372 kts 353°
2026-04-30 12:30 57.01160 11.98795 20423 ft 373 kts 353°
2026-04-30 12:31 57.03730 11.98076 20176 ft 373 kts 355°
2026-04-30 12:31 57.06307 11.97888 19922 ft 370 kts
2026-04-30 12:31 57.08883 11.97871 19671 ft 369 kts
2026-04-30 12:31 57.11447 11.97860 19420 ft 368 kts
2026-04-30 12:32 57.14001 11.97851 19170 ft 367 kts
2026-04-30 12:32 57.16553 11.97845 18919 ft 366 kts
2026-04-30 12:32 57.19090 11.97838 18669 ft 364 kts
2026-04-30 12:32 57.21620 11.97830 18418 ft 363 kts
2026-04-30 12:33 57.24139 11.97826 18168 ft 361 kts
2026-04-30 12:33 57.26650 11.97822 17916 ft 360 kts
2026-04-30 12:33 57.29128 11.97818 17632 ft 351 kts
2026-04-30 12:33 57.31546 11.97809 17252 ft 344 kts
2026-04-30 12:34 57.33913 11.97796 16872 ft 337 kts
2026-04-30 12:34 57.36234 11.97782 16499 ft 330 kts
2026-04-30 12:34 57.38512 11.97767 16124 ft 324 kts
2026-04-30 12:34 57.40753 11.97756 15748 ft 320 kts
2026-04-30 12:35 57.42964 11.97746 15372 ft 315 kts
2026-04-30 12:35 57.45138 11.97737 14999 ft 311 kts
2026-04-30 12:35 57.47291 11.97728 14617 ft 308 kts
2026-04-30 12:35 57.49421 11.97718 14244 ft 304 kts
2026-04-30 12:36 57.51529 11.97709 13869 ft 301 kts
2026-04-30 12:36 57.53616 11.97705 13493 ft 298 kts
2026-04-30 12:36 57.55659 11.98210 13117 ft 296 kts 15°
2026-04-30 12:36 57.57554 11.99653 12695 ft 294 kts 26°
2026-04-30 12:37 57.59348 12.01418 12216 ft 288 kts 26°
2026-04-30 12:37 57.61110 12.03148 11740 ft 283 kts 26°
2026-04-30 12:37 57.62842 12.04845 11263 ft 279 kts 26°
2026-04-30 12:37 57.64550 12.06516 10791 ft 275 kts 26°
2026-04-30 12:38 57.66236 12.08165 10310 ft 273 kts 26°
2026-04-30 12:38 57.67911 12.09810 9844 ft 272 kts 26°
2026-04-30 12:38 57.69564 12.11434 9390 ft 271 kts 26°
2026-04-30 12:38 57.71227 12.13067 8910 ft 269 kts 26°
2026-04-30 12:39 57.72880 12.14689 8467 ft 267 kts 26°
2026-04-30 12:39 57.74518 12.16298 8120 ft 266 kts 26°
2026-04-30 12:39 57.76156 12.17914 7769 ft 267 kts 26°
2026-04-30 12:39 57.77798 12.19535 7420 ft 267 kts 26°
2026-04-30 12:40 57.79446 12.21161 7069 ft 268 kts 26°
2026-04-30 12:40 57.81097 12.22789 6718 ft 268 kts 26°
2026-04-30 12:40 57.82743 12.24415 6369 ft 266 kts 26°
2026-04-30 12:40 57.84363 12.26018 6022 ft 261 kts 27°
2026-04-30 12:41 57.85763 12.28110 5665 ft 257 kts 49°
2026-04-30 12:41 57.86643 12.30997 5316 ft 254 kts 70°
2026-04-30 12:41 57.86927 12.34240 4978 ft 251 kts 86°
2026-04-30 12:41 57.86765 12.37451 4613 ft 247 kts 107°
2026-04-30 12:42 57.85898 12.40250 4107 ft 249 kts 136°
2026-04-30 12:42 57.84501 12.41987 3939 ft 235 kts 161°
2026-04-30 12:42 57.82943 12.42493 3758 ft 223 kts 185°
2026-04-30 12:42 57.81455 12.41862 3507 ft 219 kts 206°
2026-04-30 12:43 57.80086 12.40620 3207 ft 216 kts 209°
2026-04-30 12:43 57.78781 12.39414 2939 ft 202 kts 209°
2026-04-30 12:43 57.77552 12.38285 2727 ft 192 kts 209°
2026-04-30 12:43 57.76386 12.37217 2437 ft 182 kts 209°
2026-04-30 12:44 57.75285 12.36207 2196 ft 172 kts 209°
2026-04-30 12:44 57.74247 12.35255 1967 ft 160 kts 209°
2026-04-30 12:44 57.73286 12.34377 1783 ft 145 kts 209°
2026-04-30 12:44 57.72400 12.33568 1577 ft 138 kts 210°
2026-04-30 12:45 57.71549 12.32786 1407 ft 136 kts 209°
2026-04-30 12:45 57.70702 12.32017 1227 ft 135 kts 210°
2026-04-30 12:45 57.69854 12.31245 1021 ft 135 kts 208°
2026-04-30 12:45 57.69014 12.30469 895 ft 135 kts 210°
2026-04-30 12:46 57.68170 12.29704 677 ft 135 kts 208°
2026-04-30 12:46 57.67333 12.28939 519 ft 128 kts 208°
2026-04-30 12:46 57.66665 12.28328 512 ft 83 kts 206°
2026-04-30 12:46 57.66303 12.28002 510 ft 33 kts 205°
2026-04-30 12:47 57.66172 12.27930 509 ft 17 kts 163°
2026-04-30 12:47 57.66107 12.28089 509 ft 12 kts 106°
2026-04-30 12:47 57.66145 12.28201 509 ft 12 kts 27°
2026-04-30 12:47 57.66224 12.28269 510 ft 14 kts 26°
2026-04-30 12:48 57.66317 12.28356 511 ft 16 kts 26°
2026-04-30 12:48 57.66425 12.28455 511 ft 19 kts 26°
2026-04-30 12:48 57.66545 12.28564 512 ft 18 kts 26°
2026-04-30 12:48 57.66654 12.28663 512 ft 18 kts 26°
2026-04-30 12:49 57.66765 12.28764 513 ft 14 kts 26°
2026-04-30 12:49 57.66828 12.28857 513 ft 11 kts 74°
2026-04-30 12:49 57.66806 12.28981 516 ft 12 kts 116°
2026-04-30 12:49 57.66776 12.29098 516 ft 9 kts 116°
2026-04-30 12:50 57.66803 12.29193 516 ft 10 kts 25°
2026-04-30 12:50 57.66866 12.29250 516 ft 11 kts 26°
2026-04-30 12:50 57.66912 12.29313 516 ft 6 kts 77°
2026-04-30 12:50 57.66897 12.29388 516 ft 6 kts 116°
2026-04-30 12:51 57.66887 12.29424 516 ft 1 kts 116°
2026-04-30 12:51 57.66887 12.29425 516 ft 0 kts 116°